THORAD DELTA 1 DEB, 42614

Orbit data source: Space-Track

THORAD DELTA 1 DEB, 42614 is space debris in LEO originally from a launch on Fri, 15 Nov 1974 UTC launched from the Air Force Western Test Range (AFWTR). Debris objects in space refer to the collection of defunct objects orbiting the Earth. Examples of debris include non-operational satellites, rocket bodies, and fragments generated from explosions, collisions, or faulty payload assembly.

Loading next visibility...
THORAD DELTA 1 DEB details
Identifier
42614, 1974-089GF
Orbit
LEO
Last TLE update18 hours ago
Origin
Flag of USGSFC (US)
ManufacturerUnknown
MissionSpacecraft
Bus & MotorUnknown
MassUnknown
Launch date (UTC)
1974-11-15 (50 years ago)
Launch vehicleUnknown
Launch site
Air Force Western Test Range (AFWTR)
Object type
Payload
Rocket body
Debris
Shape & HBRUnknown
Radar Cross SectionSmall (<0.1 m²)

Expand to show TLE details & history

TLE from 18 hours ago
0 THORAD DELTA 1 DEB
1 42614U 74089GF  24346.19662976  .00000994  00000-0  60335-2 0  9991
2 42614 101.8427 129.3984 0038718 171.3306   3.0647 12.59249057466354
Epoch: 2024-12-11T04:43Z
Definitive object data (Epoch: 2024-12-11T04:43:08.811Z)
Latitude5.38696°
Longitude159.3443°
Altitude1,397.914 km
Speed7.175 km/s
True Right ascension20h 42m 06s
True Declination5° 21' 27"
Sunlit
Object was in daylight at TLE epoch
Visualization TLE readout
Latitude45.41053°
Longitude-33.23087°
Altitude1,449.181 km
Speed7.134 km/s
Apparent Right ascension08h 38m 23s
Apparent Declination8° 17' 29"
Sunlit
Object is in full shadow
Visualization observer readout
Local Sidereal Time21:30:48
Azimuth17.107° NNE
Elevation-40.291°
Doppler factor1
Orbital elements
Apogee altitude1,453.792 km
Perigee altitude1,393.379 km
Semi-major axis7,801.723 km
Eccentricity0.0038718
Inclination101.8427°
RAAN129.3984°
Arg. of periapsis171.3306°
True anomaly3.08854°
Mean anomaly3.0647°
Eccentric anomaly3.07661°
Mean motion3.14961 °/min
BSTAR0.0060335
Orbital period114.3 mins
Loading maneuver chart data...

THORAD DELTA 1 DEB Visibility forecast

Observer location: undefined°, undefined

Span
Click to sort rows by Start time (UTC) header in descending order
Start Az.
Max El. time (UTC)
Max El. Az.
Max El.
End time (UTC)
End Az.
15 mins2024-12-11 23:27:40.792Z8.441° NNE2024-12-11 23:34:40.792Z307.215° NW39.072°2024-12-11 23:42:40.792Z220.979° SW
13 mins2024-12-12 08:32:40.792Z121.841° SE2024-12-12 08:38:40.792Z55.239° ENE34.115°2024-12-12 08:45:40.792Z355.472° N
14 mins2024-12-12 10:23:40.792Z192.916° SSW2024-12-12 10:30:40.792Z263.587° W34.577°2024-12-12 10:37:40.792Z328.001° NNW
14 mins2024-12-12 22:22:40.792Z26.334° NE2024-12-12 22:29:40.792Z117.226° SE41.516°2024-12-12 22:36:40.792Z183.85° SSW
|